Tracking 22283 objects as of 28-Jan-2021
HD Live streaming from Space Station
objects crossing your sky now

COSMOS 1541

Track COSMOS 1541 now!
COSMOS 1541 is classified as:


NORAD ID: 14790
Int'l Code: 1984-024A
Perigee: 7,362.5 km
Apogee: 33,018.5 km
Inclination: 71.6 °
Period: 718.0 minutes
Semi major axis: 26561 km
RCS: 7.9433 m2 (large)
Launch date: March 6, 1984
Source: Commonwealth of Independent States (former USSR) (CIS)
Launch site: PLESETSK MISSILE AND SPACE COMPLEX (PKMTR)
aabbcc
Your satellite tracking list
Your tracking list is empty




NASA's NSSDC Master Catalog

Two Line Element Set (TLE):
1 14790U 84024A   21027.39839947  .00000179  00000-0  00000-0 0  9990
2 14790  71.6096 225.5315 4829561  38.3756  91.6093  2.00550867242494
Source of the keplerian elements: AFSPC